FW7196 Weather Reports


time (UTC)temp
F
wind
direction
speed
knots
gust
knots
rain 1hr
in
rain 24hr
in
rain mn
in
humidity
%
barometer
mb
20260903144546 64 0 0.0 0.9 0.00 0.04 0.04 93 1014.6
20260903143044 63 0 0.0 0.9 0.00 0.04 0.04 93 1014.7
20260903141543 63 0 0.0 0.0 0.00 0.04 0.04 93 1015.1
20260903140639 63 95 0.0 0.0 0.00 0.03 0.04 93 1015.0
20260903140120 63 95 0.0 0.0 0.00 0.03 0.04 93 1015.0
20260903140043 63 0 0.0 0.9 0.00 0.04 0.04 93 1015.0
20260903135607 63 95 0.0 0.0 0.00 0.03 0.04 93 1014.9
20260903135059 63 95 0.0 0.0 0.00 0.03 0.04 93 1014.9
20260903134604 63 174 0.0 0.0 0.00 0.03 0.04 93 1014.9
20260903134544 63 0 0.0 1.7 0.00 0.04 0.04 93 1014.9
20260903134050 63 174 0.0 0.0 0.00 0.03 0.04 92 1014.8
20260903133050 62 0 0.0 0.9 0.00 0.04 0.04 93 1014.8
20260903131553 62 0 0.0 2.6 0.00 0.04 0.04 93 1014.7
20260903130044 62 0 0.0 4.3 0.00 0.04 0.04 93 1014.9
20260903124543 61 91 0.9 3.5 0.00 0.04 0.04 94 1014.9
20260903123044 61 0 0.0 2.6 0.00 0.04 0.04 95 1014.9
20260903121546 61 0 0.0 0.9 0.00 0.04 0.04 95 1015.0
20260903120043 60 0 0.0 1.7 0.00 0.04 0.04 95 1015.1
20260903114542 60 0 0.0 1.7 0.00 0.04 0.04 95 1015.2
20260903113042 60 170 0.0 2.6 0.00 0.04 0.04 95 1015.3
20260903111615 60 0 0.0 1.7 0.00 0.04 0.04 95 1015.3
20260903110043 60 0 0.0 1.7 0.00 0.04 0.04 95 1015.2
20260903104557 60 0 0.0 4.3 0.00 0.04 0.04 95 1015.0
20260903103042 60 17 0.0 2.6 0.00 0.04 0.04 95 1014.9
20260903101545 59 0 0.0 1.7 0.00 0.04 0.04 95 1014.7
20260903100045 59 0 0.0 1.7 0.00 0.04 0.04 95 1014.9
20260903094544 59 0 0.0 2.6 0.00 0.04 0.04 95 1015.0
20260903093046 59 0 0.0 0.9 0.00 0.04 0.04 95 1015.1
20260903091542 59 0 0.0 0.9 0.00 0.04 0.04 95 1015.2
20260903090050 59 0 0.0 2.6 0.00 0.04 0.04 95 1015.3
20260903084542 59 214 0.0 2.6 0.00 0.04 0.04 95 1015.4
20260903083041 59 0 0.0 2.6 0.00 0.04 0.04 95 1015.7
20260903081543 59 0 0.0 0.9 0.00 0.04 0.04 95 1015.7
20260903080044 59 0 0.0 1.7 0.00 0.04 0.04 95 1015.7
20260903074541 59 0 0.0 0.9 0.00 0.04 0.04 94 1015.8
20260903073046 59 0 0.0 1.7 0.00 0.04 0.04 94 1015.9
20260903071544 59 0 0.0 4.3 0.00 0.04 0.04 94 1016.2
20260903070045 59 0 0.0 1.7 0.01 0.04 0.04 94 1016.0
20260903064540 59 0 0.0 0.9 0.03 0.04 0.04 94 1016.1
20260903063041 59 0 0.0 0.9 0.04 0.04 0.04 93 1016.0
20260903061558 60 0 0.0 1.7 0.04 0.04 0.04 92 1016.3
20260903060045 61 207 0.0 5.2 0.03 0.03 0.03 90 1016.4
20260903054542 62 0 0.0 2.6 0.01 0.02 0.01 87 1016.6
20260903053055 62 0 0.0 1.7 0.00 0.01 0.00 86 1016.8
20260903051548 62 0 0.0 3.5 0.00 0.01 0.00 86 1016.9
20260903050042 62 0 0.0 0.9 0.00 0.01 0.00 86 1017.0
20260903044540 62 0 0.0 2.6 0.00 0.01 0.00 85 1017.2
20260903043043 62 52 0.0 2.6 0.00 0.01 0.00 86 1017.3
20260903041542 62 280 0.9 2.6 0.00 0.01 0.00 85 1017.2
20260903040040 62 57 0.0 3.5 0.00 0.01 0.00 85 1017.1
20260903034543 62 0 0.0 1.7 0.00 0.01 0.01 84 1017.6
20260903033049 62 0 0.0 3.5 0.00 0.01 0.01 83 1017.4
20260903031549 62 96 0.0 2.6 0.00 0.01 0.01 83 1018.0
20260903030106 62 0 0.0 0.9 0.00 0.01 0.01 84 1018.3
20260903024545 63 0 0.0 1.7 0.00 0.01 0.01 83 1018.5
20260903023043 63 353 0.0 2.6 0.00 0.01 0.01 83 1018.2
20260903021542 63 0 0.0 2.6 0.00 0.01 0.01 84 1018.3
20260903020050 63 83 0.9 7.0 0.00 0.01 0.01 83 1018.7
20260903014544 63 0 0.0 1.7 0.00 0.01 0.01 84 1018.6
20260903013515 63 148 0.0 0.0 0.00 0.01 0.01 85 1018.9
20260903013045 63 0 0.9 4.3 0.00 0.01 0.01 85 1019.1
20260903013001 64 151 0.0 3.5 0.00 0.01 0.01 85 1019.1
20260903012453 64 68 0.0 3.5 0.00 0.01 0.01 84 1018.9
20260903011552 63 0 0.0 3.5 0.00 0.01 0.01 84 1018.9
20260903011317 64 60 0.0 5.2 0.00 0.01 0.01 84 1018.9
20260903010812 64 46 0.0 5.2 0.00 0.01 0.01 84 1018.7
20260903010253 64 74 0.0 5.2 0.00 0.01 0.01 85 1018.8
20260903010050 63 120 0.0 6.1 0.00 0.01 0.01 85 1018.7
20260903005748 64 90 0.0 0.0 0.00 0.01 0.01 86 1018.8
20260903005244 64 22 0.0 0.0 0.00 0.00 0.01 86 1018.7
20260903004544 63 0 0.0 3.5 0.00 0.01 0.01 86 1018.5
20260903003043 63 0 0.0 5.2 0.00 0.01 0.01 87 1018.4
20260903001542 63 75 0.9 5.2 0.00 0.01 0.01 87 1018.5
20260903000046 63 243 0.0 3.5 0.00 0.01 0.01 88 1018.0
20260902234543 63 0 0.0 3.5 0.00 0.01 0.01 88 1018.1
20260902233043 64 24 0.0 2.6 0.00 0.01 0.01 88 1018.2
20260902231600 64 41 0.0 6.1 0.00 0.01 0.01 87 1018.8
20260902230048 64 0 0.0 1.7 0.00 0.01 0.01 87 1019.6
20260902224556 64 0 0.0 0.9 0.00 0.01 0.01 87 1020.0
20260902223050 64 0 0.0 1.7 0.00 0.01 0.01 87 1020.1
20260902221600 64 14 0.0 1.7 0.00 0.01 0.01 86 1020.2
20260902220058 64 0 0.0 3.5 0.00 0.01 0.01 86 1020.2
20260902214543 65 0 0.0 1.7 0.00 0.01 0.01 86 1020.0
20260902213041 65 257 0.0 1.7 0.00 0.01 0.01 86 1020.2
20260902211544 65 270 0.0 1.7 0.00 0.01 0.01 85 1019.9
20260902210046 65 0 0.0 2.6 0.00 0.01 0.01 85 1020.3
20260902204549 65 22 0.0 1.7 0.00 0.01 0.01 84 1020.5
20260902203048 66 179 0.0 2.6 0.00 0.01 0.01 84 1020.4
20260902201550 66 0 0.0 2.6 0.00 0.01 0.01 83 1020.4
20260902200045 67 0 0.0 5.2 0.00 0.01 0.01 82 1020.5
20260902194542 67 92 0.9 5.2 0.00 0.01 0.01 82 1020.5
20260902193054 67 9 0.0 6.1 0.00 0.01 0.01 82 1020.8
20260902191542 67 0 0.9 6.1 0.00 0.01 0.01 83 1020.9
20260902190329 67 51 0.0 0.0 0.00 0.01 0.01 82 1020.9
20260902190043 66 359 0.0 6.1 0.00 0.01 0.01 82 1021.0
20260902185151 65 194 0.0 1.7 0.00 0.01 0.01 86 1021.1
20260902184648 65 191 0.0 0.0 0.00 0.01 0.01 86 1021.3
20260902184606 64 0 0.0 1.7 0.00 0.01 0.01 86 1021.4
20260902184133 65 180 0.0 0.0 0.00 0.01 0.01 86 1021.6
20260902183618 65 124 0.0 0.0 0.00 0.01 0.01 85 1021.6
20260902183103 65 124 0.0 2.6 0.00 0.01 0.01 85 1021.8
20260902183047 65 0 0.9 3.5 0.00 0.01 0.01 85 1021.8
20260902182610 65 159 0.0 0.0 0.00 0.01 0.01 85 1021.8
20260902182118 65 159 0.0 0.0 0.00 0.01 0.01 84 1021.7
20260902181605 65 161 0.0 0.0 0.00 0.01 0.01 83 1021.5
20260902181545 65 0 0.0 3.5 0.00 0.01 0.01 83 1021.6
20260902181052 66 26 0.0 0.9 0.00 0.01 0.01 84 1021.5
20260902180544 66 188 0.0 0.0 0.00 0.01 0.01 84 1021.4
20260902180044 65 0 0.0 2.6 0.00 0.01 0.01 83 1021.3
20260902180038 66 292 0.0 0.9 0.00 0.01 0.01 83 1021.3
20260902174541 65 50 0.0 2.6 0.00 0.01 0.01 83 1021.4
20260902173044 65 17 0.0 1.7 0.00 0.01 0.01 83 1021.3
20260902171552 65 0 0.0 0.9 0.00 0.01 0.01 84 1021.5
20260902170041 65 0 0.0 3.5 0.00 0.01 0.01 83 1021.8
20260902164543 66 0 0.0 2.6 0.00 0.01 0.01 82 1021.8
20260902163049 66 0 0.0 4.3 0.00 0.01 0.01 81 1021.8
20260902161542 66 0 0.0 4.3 0.00 0.01 0.01 82 1021.6
20260902160544 66 39 0.0 0.9 0.00 0.01 0.01 82 1021.8
20260902160046 65 0 0.0 3.5 0.00 0.01 0.01 82 1021.9
20260902160029 66 6 0.0 2.6 0.00 0.01 0.01 82 1021.9
20260902155534 66 173 0.0 0.0 0.00 0.01 0.01 84 1021.9
20260902154545 65 0 0.0 1.7 0.00 0.01 0.01 84 1022.2
20260902153051 65 0 0.0 1.7 0.00 0.01 0.01 83 1022.6
20260902151542 65 0 0.0 3.5 0.00 0.01 0.01 83 1022.3
20260902150043 65 0 0.0 1.7 0.00 0.01 0.01 85 1022.6